Shreveport, LA

2:16 AM CST on February 12, 2016 (GMT -0600)
Barksdale Air Force Base

Weather History for KBAD - March, 2013

Change the Weather History Date:

Thursday, March 21, 2013

  Actual Average Record
Temperature  
Mean Temperature 51 °F -  
Max Temperature 58 °F 66 °F 83 °F (2011)
Min Temperature 45 °F 47 °F 32 °F (1998)
Degree Days  
Heating Degree Days 14    
Growing Degree Days 1 (Base 50)    
Moisture  
Dew Point 32 °F    
Average Humidity 49    
Maximum Humidity 62    
Minimum Humidity 41    
Precipitation  
Precipitation 0.00 in - - ()
Sea Level Pressure  
Sea Level Pressure 29.92 in    
Wind  
Wind Speed 8 mph (ESE)    
Max Wind Speed 14 mph    
Max Gust Speed -    
Visibility 10 miles    
Events Rain    
Averages and records for this station are not official NWS values.
T = Trace of Precipitation, MM = Missing Value Source: NWS Daily Summary

Daily Weather History Graph

Daily Weather History Graph

Search for Another Location

Airport or City:

Trip Planner

Search our weather history database for the weather conditions in past years. The results will help you decide how hot, cold, wet, or windy it might be!

Date:

Astronomy

Mar. 21, 2013 Rise Set
Actual Time 7:16 AM CDT 7:27 PM CDT
Civil Twilight 6:52 AM CDT 7:51 PM CDT
Nautical Twilight 6:23 AM CDT 8:20 PM CDT
Astronomical Twilight 5:54 AM CDT 8:49 PM CDT
Moon 2:13 PM CDT (3/21) 3:22 AM CDT (3/21)
Length of Visible Light 12h 59m
Length of Day
12h 10m
Waxing Gibbous, 69% of the Moon is Illuminated
Mar 21
Waxing Gibbous
Mar 27
Full
Apr 2
Last Quarter
Apr 10
New
Apr 18
First Quarter

Hourly Weather History & Observations

Time (CDT) Temp. Windchill Dew Point Humidity Pressure Visibility Wind Dir Wind Speed Gust Speed Precip Events Conditions
12:58 AM 47.7 °F - 31.6 °F 54% 30.07 in 10.0 mi NE 5.8 mph - N/A   Partly Cloudy
1:58 AM 48.2 °F - 30.0 °F 49% 30.05 in 10.0 mi ENE 6.9 mph - N/A   Partly Cloudy
2:58 AM 48.9 °F - 29.1 °F 46% 30.05 in 10.0 mi ENE 5.8 mph - N/A   Partly Cloudy
3:58 AM 48.0 °F - 29.3 °F 48% 30.06 in 10.0 mi East 4.6 mph - N/A   Partly Cloudy
4:55 AM 46.4 °F - 30.2 °F 53% 30.05 in 10.0 mi NE 2.3 mph - N/A   Clear
5:58 AM 46.9 °F - 30.0 °F 52% 30.04 in 10.0 mi East 10.4 mph - N/A   Partly Cloudy
6:58 AM 45.0 °F 40.1 °F 26.8 °F 49% 30.04 in 10.0 mi East 9.2 mph - N/A   Scattered Clouds
7:58 AM 45.0 °F 39.7 °F 26.6 °F 49% 30.03 in 10.0 mi ESE 10.4 mph - N/A   Mostly Cloudy
8:55 AM 46.4 °F 41.5 °F 26.6 °F 46% 30.02 in 10.0 mi ESE 10.4 mph - N/A   Mostly Cloudy
9:55 AM 50.0 °F - 28.4 °F 43% 30.03 in 10.0 mi ESE 9.2 mph - N/A   Partly Cloudy
10:52 AM 48.2 °F - 28.4 °F 46% 30.00 in 10.0 mi ESE 13.8 mph - N/A   Light Drizzle
10:55 AM 48.2 °F - 28.4 °F 46% 30.01 in 10.0 mi SE 13.8 mph - 0.00 in   Mostly Cloudy
10:58 AM 48.2 °F - 28.4 °F 46% 30.01 in 10.0 mi SE 13.8 mph - 0.00 in   Mostly Cloudy
11:58 AM 50.0 °F - 28.4 °F 43% 30.01 in 10.0 mi SE 9.2 mph - N/A   Mostly Cloudy
12:55 PM 50.0 °F - 30.2 °F 47% 29.98 in 10.0 mi East 8.1 mph - N/A   Mostly Cloudy
1:15 PM 50.0 °F - 32.0 °F 50% 29.96 in 10.0 mi East 8.1 mph - N/A Rain Light Rain Showers
1:50 PM 48.2 °F - 35.6 °F 62% 29.92 in 10.0 mi East 10.4 mph - N/A   Overcast
1:55 PM 48.2 °F - 33.8 °F 58% 29.92 in 10.0 mi East 11.5 mph - 0.00 in   Overcast
2:55 PM 53.6 °F - 35.6 °F 51% 29.86 in 10.0 mi ESE 11.5 mph - N/A   Overcast
3:54 PM 55.4 °F - 35.6 °F 47% 29.83 in 10.0 mi East 8.1 mph - N/A Rain Light Rain
3:55 PM 55.4 °F - 35.6 °F 47% 29.83 in 10.0 mi East 8.1 mph - N/A Rain Light Rain
4:05 PM 55.4 °F - 37.4 °F 51% 29.82 in 10.0 mi ESE 8.1 mph - N/A   Mostly Cloudy
4:34 PM 57.2 °F - 33.8 °F 41% 29.79 in 10.0 mi ESE 13.8 mph - N/A   Overcast
4:58 PM 57.4 °F - 34.9 °F 43% 29.80 in 10.0 mi ESE 12.7 mph - 0.00 in   Overcast
5:58 PM 57.2 °F - 35.8 °F 45% 29.79 in 10.0 mi East 9.2 mph - N/A   Mostly Cloudy
6:58 PM 54.7 °F - 35.2 °F 48% 29.77 in 10.0 mi East 5.8 mph - N/A   Mostly Cloudy
7:58 PM 53.6 °F - 34.7 °F 49% 29.78 in 10.0 mi ESE 9.2 mph - N/A   Overcast
8:58 PM 53.4 °F - 34.2 °F 48% 29.78 in 10.0 mi East 8.1 mph - N/A   Overcast
9:58 PM 53.2 °F - 34.3 °F 49% 29.78 in 10.0 mi ESE 8.1 mph - N/A   Overcast
10:58 PM 54.3 °F - 36.1 °F 50% 29.75 in 10.0 mi SE 10.4 mph - N/A   Overcast
11:58 PM 55.4 °F - 38.3 °F 53% 29.74 in 10.0 mi ESE 10.4 mph - N/A   Overcast